Regional Weather Roundup
Issued by NWS

Home | Current Version | Previous Version | Text Only | Print | Product List | Glossary Off
Versions: 1 2 3 4 5 6 7 8 9 10 11 12 13 14 15 16 17 18 19 20 21 22 23 24 25 26 27 28 29 30 31 32 33 34 35 36 37 38 39 40 41 42 43 44 45 46 47 48 49 50

000
ASUS43 KMPX 181810
RWRMN
WEATHER ROUNDUP FOR MINNESOTA
NATIONAL WEATHER SERVICE TWIN CITIES/CHANHASSEN MN
1200 PM CST THU JAN 18 2018


NOTE: "FAIR" INDICATES FEW OR NO CLOUDS BELOW 12,000 FEET WITH NO
SIGNIFICANT WEATHER AND/OR OBSTRUCTIONS TO VISIBILITY. N/A MEANS
CURRENT SKY AND/OR WEATHER CONDITIONS ARE NOT AVAILABLE.

MNZ060>063-068>070-181900-
   Twin Cities Metro

CITY           SKY/WX    TMP DP  RH WIND       PRES   REMARKS
TWIN CITIES    FAIR      35  23  61 SW7       29.85F WCI  29
6HR MIN TEMP:  23; 6HR MAX TEMP:  35;

ST PAUL        FAIR      35  21  56 SW10      29.86F WCI  27
CRYSTAL        FAIR      38  20  48 SW6       29.83F
LAKEVILLE      FAIR      34  23  64 W9        29.85F WCI  26
EDEN PRAIRIE   FAIR      36  23  59 SW8       29.84F
6HR MIN TEMP:  19; 6HR MAX TEMP:  36;

SOUTH ST PAUL  FAIR      36  22  56 W7        29.85F
LAKE ELMO      FAIR      36  23  60 SW8       29.85F
$$
MNZ001>005-007-008-013>017-022>024-027-028-181900-
   Northwest Minnesota

CITY           SKY/WX    TMP DP  RH WIND       PRES   REMARKS
BEMIDJI        CLOUDY    32  25  76 W5        29.74F WCI  27
HALLOCK        CLOUDY    27  19  74 SW3       29.76S
ROSEAU         CLOUDY    27  19  74 W5        29.73F WCI  21
WARROAD        CLOUDY    25  19  80 W8        29.73F WCI  16
THIEF RVR FALL CLOUDY    31  23  72 S5        29.76F WCI  26
CROOKSTON      FAIR      25  19  80 CALM      29.77F
FOSSTON        CLOUDY    27  19  74 S9        29.76F WCI  17
DETROIT LAKES  FAIR      30  21  69 W3        29.78F
MOORHEAD       FAIR      28  21  74 SW5       29.80F WCI  23
PARK RAPIDS    FAIR      31  25  78 W5        29.75F WCI  26
MAHNOMEN       FAIR      25  19  79 SW9       29.76F WCI  15
$$
MNZ006-009>011-018-025>026-181900-
   North Central Minnesota

CITY           SKY/WX    TMP DP  RH WIND       PRES   REMARKS
BAUDETTE       FAIR      26  15  63 W12       29.71S WCI  16
FLAG ISLAND    FAIR      27  16  63 W3        29.69F
INTL FALLS     CLOUDY    29  22  75 W13G18    29.69S WCI  19
6HR MIN TEMP:  28; 6HR MAX TEMP:  32;

WASKISH        CLOUDY    28  23  80 W7        29.74S WCI  21
BIG FORK       PTSUNNY   32  23  69 W8        29.72S WCI  25
LONGVILLE      CLOUDY    34  23  64 SW5       29.75F WCI  30
GRAND RAPIDS   CLOUDY    33  25  72 NW12      29.74F WCI  24
CRANE LAKE     CLOUDY    28  27  93 CALM      29.70F
ORR            CLOUDY    28  23  80 W7        29.67F WCI  21
COOK           CLOUDY    30  25  80 W9        29.70F WCI  22
WALKER         CLOUDY    32  25  75 W7        29.75F WCI  26
$$
MNZ012-019>021-037-181900-
   Northeast Minnesota

CITY           SKY/WX    TMP DP  RH WIND       PRES   REMARKS
DULUTH         CLOUDY    34  25  69 W12       29.70F WCI  25
6HR MIN TEMP:  27; 6HR MAX TEMP:  34;

ELY            CLOUDY    30  27  86 W10       29.68F WCI  21
HIBBING        CLOUDY    29  23  78 NW13      29.70F WCI  19
EVELETH        PTSUNNY   30  20  66 NW10      29.71F WCI  21
DULUTH HARBOR  CLOUDY    36  27  69 SW9       29.75F
TWO HARBORS    CLOUDY    37  28  70 W10G16    29.69F
SILVER BAY     CLOUDY    34  27  75 W6        29.68F WCI  29
GRAND MARAIS     N/A     36  30  79 W7        29.67F
G MARAIS ARPRT CLOUDY    28  25  86 W7        29.63F HAZE    WCI  21
$$
MNZ029>031-032-039>041-046>048-054>057-064-181900-
   West Central Minnesota

CITY           SKY/WX    TMP DP  RH WIND       PRES   REMARKS
FERGUS FALLS   FAIR      30  23  74 W3        29.80F
WHEATON        CLOUDY    39  23  52 W5        29.82F
MORRIS         CLOUDY    41  27  56 W8        29.80F
ALEXANDRIA     FAIR      37  24  59 W10       29.81F
ELBOW LAKE     FAIR      34  24  68 SW7       29.81F WCI  28
WADENA         FAIR      32  21  64 W6        29.78S WCI  26
GLENWOOD       FAIR      36  25  64 W8        29.81F
APPLETON       CLOUDY    41  25  52 SW5       29.82F
BENSON         CLOUDY    41  25  52 NW7       29.84F
ORTONVILLE     CLOUDY    43  25  49 W3        29.81F
MADISON        CLOUDY    43  27  52 CALM      29.83F
WILLMAR        FAIR      37  27  65 SW8       29.85F
$$
MNZ033>034-036-042>043-049>051-058-059-181900-
   Central Minnesota

CITY           SKY/WX    TMP DP  RH WIND       PRES   REMARKS
ST CLOUD       FAIR      38  25  59 W10       29.80F
6HR MIN TEMP:  13; 6HR MAX TEMP:  38;

SAUK CENTRE      N/A     35  25  66 W12       29.80F WCI  27
PAYNESVILLE    FAIR      39  28  64 W9        29.81F
AITKIN         CLOUDY    34  23  64 W3        29.75F
PINE RIVER     FAIR      32  25  74 NW3       29.80F
BRAINERD       PTSUNNY   35  24  64 W3        29.78F
STAPLES        FAIR      32  21  64 W5        29.78F WCI  27
LONG PRAIRIE   FAIR      36  23  60 SW8       29.80F
LITTLE FALLS   FAIR      36  18  48 SW3       29.79F
LITCHFIELD     FAIR      39  27  60 SW5       29.83F
BUFFALO        FAIR      37  24  57 SW6       29.84F
MAPLE LAKE     FAIR      40  26  59 MISG      29.83F
HUTCHINSON     FAIR      39  28  63 SW7       29.84F
$$
MNZ037-044-045-052-053-181900-
   East Central Minnesota

CITY           SKY/WX    TMP DP  RH WIND       PRES   REMARKS
PRINCETON      FAIR      39  23  52 W6        29.81F
MORA           FAIR      36  23  60 CALM      29.80F
CAMBRIDGE      FAIR      37  25  60 W7        29.81F
RUSH CITY      FAIR      37  23  56 W7        29.81F
MOOSE LAKE     CLOUDY    36  27  69 W10       29.74F
HINCKLEY       FAIR      36  27  69 W5        29.79F
CLOQUET        CLOUDY    34  25  69 W10G18    29.72F WCI  26
MCGREGOR       PTSUNNY   34  27  75 W8        29.76F WCI  27
$$
MNZ071>073-080-081-089-090-097-098-181900-
   Southwest Minnesota

CITY           SKY/WX    TMP DP  RH WIND       PRES   REMARKS
MONTEVIDEO     CLOUDY    46  27  46 CALM      29.83F
GRANITE FALLS  CLOUDY    45  31  58 SW6       29.84F
CANBY          CLOUDY    47  27  45 SW15G23   29.82F
MARSHALL       CLOUDY    41  27  57 SW17      29.81F
REDWOOD FALLS  SUNNY     39  27  62 SW8       29.83F
OLIVIA         SUNNY     37  27  65 SW6       29.83F
PIPESTONE      CLOUDY    28  21  74 SW9       29.86F WCI  20
WINDOM         SUNNY     37  19  48 SW17      29.85F
WORTHINGTON    SUNNY     35  24  64 SW16      29.87F WCI  25
JACKSON        SUNNY     36  27  69 SW15      29.88F
SLAYTON        CLOUDY    33  25  73 SW20      29.85F WCI  21
$$
MNZ065>067-074>077-082>085-091>093-181900-
   South Central Minnesota

CITY           SKY/WX    TMP DP  RH WIND       PRES   REMARKS
MANKATO        FAIR      36  25  64 S10       29.87F
NEW ULM        SUNNY     41  27  56 SW10      29.84F
ST JAMES       SUNNY     43  28  56 SW13      29.87F
FAIRMONT       SUNNY     36  25  64 SW20G26   29.88F
FARIBAULT      FAIR      32  21  64 S8        29.87F WCI  25
OWATONNA       FAIR      34  25  69 SW15      29.87F WCI  24
WASECA         FAIR      32  27  80 SW10      29.89F WCI  24
ALBERT LEA     FAIR      36  21  55 SW9       29.88F
$$
MNZ078>079-086>088-094>096-181900-
   Southeast Minnesota

CITY           SKY/WX    TMP DP  RH WIND       PRES   REMARKS
ROCHESTER      FAIR      30  23  75 SW16      29.89F WCI  19
6HR MIN TEMP:  17; 6HR MAX TEMP:  30;

RED WING       FAIR      36  18  48 W7        29.87F
STANTON        FAIR      33  23  66 SW12      29.85F WCI  25
DODGE CENTER   FAIR      28  21  74 SW16      29.87F WCI  17
WINONA         FAIR      34  21  60 W3        29.90F
PRESTON        FAIR      31  20  66 SW13G20   29.90F WCI  21
$$
ABBREVIATIONS USED IN REMARKS
   TC - TEMPERATURES IN CELSIUS
  WCI - WIND CHILL INDEX
   HX - HEAT INDEX
  VSB - VISIBILITY
$$



USA.gov is the U.S. government's official web portal to all federal, state and local government web resources and services.